Wind_Speed
33 33 31 28 28 26 22 23 5 18 31 13 11 19 12 6 10 12 12 5 5 9 4 3 3 3 5 6 2 4 5 7 12 23 17 10 7 11 11 6 4 3 5 9
36 35 32 31 30 30 25 12 9 29 42 12 19 15 16 21 3 6 3 7 10 2 4 3 5 6 2 7 4 4 6 4 4 7 9 5 8 5 10 5 4 9 7 5
37 35 34 33 33 32 30 7 5 11 35 18 18 20 21 20 16 22 23 12 9 5 3 6 7 2 3 3 6 11 8 5 5 11 7 5 5 11 10 11 6 5 7 7
37 36 36 35 35 35 33 19 7 11 9 20 14 15 10 24 19 16 14 6 19 9 5 5 7 4 2 2 2 5 4 6 12 17 14 18 19 9 9 14 7 9 7 9
37 36 36 36 36 35 40 13 10 9 1 21 22 20 23 24 17 12 13 15 4 17 20 9 8 7 5 5 2 3 2 2 10 10 13 16 20 20 16 15 10 7 8 8
35 33 33 35 37 38 32 35 21 15 14 11 17 31 34 16 16 13 32 15 15 13 7 14 14 11 10 6 7 3 5 3 5 6 16 13 11 27 19 6 7 6 8 8
32 32 33 35 36 43 43 26 23 11 6 15 27 16 20 21 19 22 16 25 15 19 24 13 7 1 1 3 2 5 6 6 4 7 14 8 18 4 16 16 9 7 5 6
34 34 34 35 35 37 44 37 17 19 10 15 20 23 21 25 27 21 24 32 30 15 17 1 5 3 2 6 6 8 4 5 3 4 7 16 5 12 3 7 14 8 8 11
34 36 36 38 40 40 43 38 42 15 4 17 29 19 21 13 16 14 30 25 29 26 2 3 9 5 3 4 4 7 7 3 4 3 4 6 9 7 19 2 8 9 15 12
36 37 39 41 41 43 46 35 39 26 4 14 22 14 19 22 16 9 6 26 11 16 4 5 5 7 6 6 9 6 3 0 7 4 4 8 11 23 15 11 7 19 6 14
36 38 39 40 43 46 45 43 30 37 12 17 13 28 15 24 30 12 7 5 8 2 7 4 4 4 6 4 7 7 8 8 5 5 4 10 2 13 5 6 9 21 26 10
35 38 41 41 44 46 48 32 39 30 21 5 19 19 28 25 38 31 19 9 8 12 4 4 2 2 1 6 3 4 4 7 5 9 7 4 3 1 10 5 9 13 23 23
34 33 38 43 43 44 49 42 33 35 14 14 23 22 25 32 24 36 17 15 16 13 13 5 4 4 5 3 6 6 4 5 4 3 8 11 7 9 19 12 9 15 23 24
33 31 33 40 41 44 48 40 40 33 12 4 8 29 22 32 34 24 37 21 19 16 19 5 3 3 8 5 5 5 5 7 6 5 6 5 18 9 12 10 5 11 14 19
25 26 30 35 39 44 46 38 39 37 25 7 4 15 20 24 31 31 21 28 25 16 2 3 5 4 3 2 3 2 6 3 4 6 11 7 15 14 8 10 6 10 13 15
20 23 26 33 34 42 39 15 34 35 36 5 4 6 16 18 27 29 24 26 19 20 6 4 5 6 9 3 3 7 13 16 21 7 19 13 13 12 8 15 14 11 13 12
25 29 31 38 46 50 25 11 18 40 28 6 3 2 10 13 17 19 17 14 10 10 5 3 3 2 12 3 3 12 16 21 14 22 18 7 15 8 8 5 2 4 5 12
34 39 42 42 36 36 13 10 19 43 13 4 3 1 3 6 4 3 12 8 7 5 6 1 3 2 4 4 10 15 15 18 12 22 16 11 6 5 7 8 8 5 2 1
38 37 36 28 14 6 24 25 21 11 4 3 3 3 2 3 2 4 3 4 2 8 3 2 1 4 4 6 12 16 17 14 16 16 12 15 14 13 13 11 9 9 9 8
18 17 6 6 12 27 26 9 5 5 1 3 2 5 2 4 2 2 2 1 3 3 4 9 3 3 8 14 13 13 15 13 13 13 14 18 17 16 17 15 10 10 12 13
6 8 9 20 14 5 4 4 2 1 2 3 3 3 4 3 3 2 2 2 1 2 2 3 3 2 8 15 15 13 10 9 8 6 5 6 7 9 11 13 14 14 16 18
11 16 12 4 5 5 5 2 2 3 2 4 2 2 3 5 4 2 3 2 1 2 2 4 3 3 13 13 13 13 13 11 11 10 10 11 12 13 15 17 18 18 20 22
6 5 5 5 6 9 4 2 2 2 3 8 6 2 3 4 4 1 2 3 2 4 4 3 3 9 11 11 11 15 15 17 20 21 21 20 22 22 23 24 23 23 26 27
7 6 6 4 5 4 3 2 2 3 5 10 5 2 1 2 2 0 4 3 4 4 3 3 3 11 13 14 14 18 22 25 26 27 28 30 31 33 31 30 30 32 33 31
8 8 5 4 4 8 6 10 4 8 10 5 1 4 4 3 3 5 4 4 5 4 2 2 10 16 17 19 21 25 28 29 29 30 32 34 34 35 35 34 34 34 33 32
7 9 5 12 3 5 8 12 9 14 13 2 4 3 3 4 3 5 5 3 4 3 3 12 19 21 23 23 25 28 30 31 31 31 32 33 33 33 33 31 31 30 30 29
6 5 19 11 5 7 12 14 16 14 7 3 3 5 5 3 4 4 4 3 5 14 20 24 23 24 24 24 26 27 29 29 29 29 29 29 28 27 27 29 26 25 25 24
Wind_Direction
275 270 264 254 246 238 236 224 212 177 189 192 209 227 210 244 277 278 240 325 274 239 295 291 282 248 302 42 16 14 325 226 227 244 249 262 235 222 188 188 206 228 173 245
272 268 261 253 240 233 229 215 176 178 186 208 217 225 233 244 269 247 269 233 233 249 174 235 242 230 159 74 74 71 343 323 261 271 261 239 224 224 218 149 126 195 181 249
270 265 258 251 242 228 223 203 177 183 200 221 214 217 228 226 228 250 258 279 312 318 179 201 255 302 290 352 101 99 119 286 245 253 278 228 230 226 217 195 181 190 218 221
267 260 254 247 238 228 219 207 219 190 205 210 209 202 201 221 222 212 223 258 238 257 285 197 243 218 248 264 37 54 78 279 326 304 280 264 249 241 221 208 200 195 208 203
263 257 250 241 234 224 215 209 199 199 64 192 206 218 222 223 211 216 213 232 245 219 238 239 300 324 293 202 352 124 136 267 350 304 284 262 247 239 251 229 207 216 225 235
258 250 242 236 230 217 212 219 231 213 204 182 192 215 227 217 220 229 233 240 224 247 238 233 255 267 266 227 161 134 146 165 56 281 330 295 264 235 229 242 221 179 213 220
250 246 239 231 226 221 214 209 206 206 212 203 216 207 212 216 217 223 240 228 237 252 255 264 252 290 250 201 284 137 136 101 119 288 317 249 248 249 226 225 229 215 243 219
250 246 240 232 230 222 216 218 194 207 225 223 225 213 207 203 217 229 226 241 249 268 265 143 258 304 316 216 228 170 164 125 179 240 295 286 246 239 199 203 255 244 247 257
250 245 238 233 230 223 221 219 223 229 218 224 224 213 200 196 208 222 238 245 245 258 211 221 214 228 164 176 97 130 94 110 161 156 250 293 324 195 233 56 275 251 224 230
248 240 235 231 227 222 218 219 219 206 231 239 202 200 207 198 189 215 196 219 233 236 213 218 239 237 193 188 156 167 103 299 217 175 220 252 249 302 240 200 262 324 300 246
245 243 238 230 224 218 213 216 222 204 214 249 231 215 194 194 200 203 196 168 211 155 195 189 210 199 216 175 169 168 165 171 213 164 183 249 79 323 47 296 317 334 334 350
246 244 234 226 220 215 211 205 215 205 203 228 243 248 222 214 207 205 187 192 158 186 168 219 150 188 344 149 219 151 203 190 187 193 216 270 197 2 300 328 311 333 336 337
243 238 228 216 210 208 205 199 195 189 198 216 250 258 227 222 228 219 198 208 199 185 198 196 198 202 137 176 231 237 258 164 215 134 248 244 241 249 275 275 337 343 356 359
229 219 205 200 199 199 198 188 189 183 182 216 254 232 231 220 229 230 213 216 210 220 213 202 199 176 182 197 212 161 206 167 195 240 273 276 257 241 267 285 349 344 351 354
183 188 192 194 197 189 186 187 186 186 177 189 224 198 207 215 212 217 220 213 214 206 190 190 197 200 141 170 98 200 330 307 199 224 231 223 258 262 269 258 335 344 344 346
161 171 180 185 182 173 150 141 182 186 196 214 184 162 192 191 201 209 212 220 218 217 187 235 228 185 167 149 185 47 8 353 19 330 326 294 286 282 268 259 256 299 322 323
118 144 146 149 162 167 157 173 186 181 181 205 149 121 156 171 191 193 203 211 203 195 133 265 238 200 177 97 115 360 354 349 357 19 18 10 21 353 358 22 326 296 309 275
121 121 127 132 146 160 188 199 159 186 203 215 120 72 104 156 126 149 201 168 144 126 149 101 289 59 64 65 348 353 348 353 355 12 17 13 12 60 45 2 345 325 3 278
123 127 129 133 148 83 121 124 132 139 236 111 89 121 139 153 113 135 124 135 75 158 128 153 353 27 62 3 351 354 352 355 336 344 9 34 50 48 45 41 36 44 55 85
109 103 116 65 105 108 106 102 102 157 3 79 96 127 116 135 37 33 80 63 173 159 202 115 80 77 64 15 4 348 342 348 358 7 3 4 24 36 45 54 67 82 90 110
39 68 75 98 105 99 85 112 93 101 47 55 99 118 137 150 120 165 221 191 193 144 206 107 96 69 16 5 7 0 2 13 21 40 40 43 44 53 67 69 77 95 110 111
95 116 104 70 47 55 77 44 2 49 59 25 80 131 116 122 131 142 210 170 97 106 49 74 74 23 12 14 15 22 40 47 53 55 63 72 79 84 89 91 92 96 105 114
71 52 62 28 356 47 51 80 30 60 6 4 356 89 118 115 172 164 103 142 85 95 45 68 48 23 28 29 36 52 66 74 75 75 79 87 92 93 92 93 97 105 104 105
52 47 34 63 13 39 30 336 319 331 347 333 336 58 70 144 172 224 88 52 41 66 68 68 44 50 58 59 68 79 79 80 83 85 89 90 89 88 91 94 97 99 99 102
49 36 42 49 352 10 340 357 345 347 341 350 145 105 51 30 46 10 79 62 68 51 59 72 60 75 77 74 75 76 80 85 86 89 89 90 93 94 95 95 96 97 98 97
53 45 24 352 42 337 8 1 347 352 352 9 31 65 85 57 42 44 25 61 52 71 70 88 90 88 86 81 80 81 86 88 88 90 93 94 93 93 94 94 92 93 94 92
39 19 23 21 11 351 346 354 336 345 357 44 52 44 31 63 61 59 31 55 104 95 82 90 92 89 94 101 100 98 98 98 98 97 95 94 94 93 88 83 83 85 85 86
Height
1430 1432 1434 1437 1440 1446 1448 1450 1449 1452 1460 1467 1459 1444 1445 1448 1450 1452 1453 1448 1445 1446 1448 1446 1443 1437 1435 1431 1430 1434 1436 1432 1438 1428 1420 1420 1421 1422 1427 1449 1453 1457 1466 1446
1418 1420 1423 1425 1430 1436 1440 1441 1443 1445 1449 1445 1438 1442 1446 1450 1450 1449 1449 1446 1442 1443 1445 1448 1440 1437 1434 1432 1434 1442 1441 1439 1444 1432 1423 1414 1421 1418 1416 1423 1438 1447 1462 1447
1405 1408 1410 1414 1418 1424 1432 1434 1435 1436 1435 1424 1431 1442 1442 1445 1447 1450 1450 1446 1444 1442 1444 1444 1441 1436 1433 1433 1436 1437 1436 1445 1439 1440 1430 1420 1418 1412 1412 1416 1442 1439 1438 1429
1392 1394 1397 1401 1407 1414 1423 1422 1418 1414 1411 1418 1428 1433 1432 1436 1439 1444 1443 1442 1445 1445 1442 1438 1436 1438 1437 1433 1432 1433 1437 1451 1445 1432 1424 1415 1410 1409 1409 1410 1415 1427 1423 1424
1378 1380 1384 1389 1394 1403 1409 1407 1406 1408 1408 1415 1425 1426 1412 1420 1434 1436 1436 1438 1436 1435 1435 1441 1439 1437 1439 1437 1435 1437 1444 1445 1449 1434 1418 1412 1408 1401 1400 1397 1404 1409 1410 1411
1364 1367 1371 1376 1382 1391 1392 1396 1398 1402 1401 1408 1415 1389 1384 1420 1433 1428 1431 1432 1435 1434 1435 1434 1433 1431 1431 1431 1434 1439 1440 1450 1450 1444 1430 1417 1417 1386 1392 1395 1394 1396 1408 1402
1352 1356 1360 1365 1370 1375 1382 1383 1390 1396 1391 1397 1374 1395 1412 1415 1421 1426 1425 1426 1433 1431 1431 1430 1430 1428 1426 1425 1424 1429 1440 1443 1453 1454 1441 1428 1387 1385 1383 1388 1388 1389 1393 1392
1341 1345 1349 1354 1360 1365 1368 1374 1380 1384 1384 1383 1389 1387 1395 1413 1415 1417 1421 1421 1426 1426 1430 1433 1431 1434 1428 1427 1425 1426 1429 1439 1451 1447 1440 1416 1387 1385 1387 1390 1387 1384 1386 1386
1327 1331 1336 1343 1349 1357 1363 1367 1373 1380 1379 1373 1377 1388 1394 1400 1407 1418 1408 1418 1421 1425 1428 1429 1428 1434 1419 1424 1426 1428 1433 1434 1437 1446 1446 1432 1404 1382 1378 1381 1394 1375 1375 1378
1312 1317 1323 1330 1338 1346 1354 1358 1363 1374 1377 1373 1375 1376 1380 1393 1399 1402 1407 1410 1416 1419 1424 1428 1428 1424 1414 1419 1425 1430 1438 1441 1434 1434 1438 1424 1403 1391 1373 1393 1394 1381 1375 1372
1298 1303 1310 1317 1325 1335 1344 1350 1355 1363 1369 1370 1369 1371 1373 1383 1389 1392 1393 1408 1407 1412 1417 1421 1421 1424 1413 1413 1408 1417 1423 1432 1434 1430 1432 1420 1395 1385 1386 1390 1383 1382 1375 1368
1283 1288 1294 1303 1312 1323 1336 1343 1348 1359 1365 1366 1369 1368 1370 1375 1378 1385 1390 1388 1392 1397 1408 1412 1410 1414 1417 1410 1417 1402 1415 1406 1413 1411 1402 1384 1385 1392 1392 1389 1385 1381 1376 1368
1267 1272 1279 1289 1301 1313 1325 1333 1343 1353 1357 1366 1368 1364 1365 1369 1372 1379 1382 1383 1386 1389 1392 1398 1398 1400 1404 1414 1405 1397 1396 1395 1399 1401 1388 1386 1381 1380 1385 1385 1380 1375 1371 1368
1250 1260 1268 1280 1292 1305 1318 1324 1333 1347 1357 1362 1355 1358 1359 1362 1368 1373 1375 1379 1382 1386 1388 1391 1393 1396 1387 1398 1393 1398 1391 1391 1391 1391 1381 1379 1378 1374 1375 1376 1372 1371 1371 1367
1245 1255 1264 1276 1286 1299 1312 1322 1330 1342 1350 1351 1352 1351 1353 1358 1363 1368 1372 1374 1377 1380 1385 1386 1388 1383 1385 1386 1388 1391 1391 1388 1390 1386 1372 1371 1369 1368 1365 1365 1366 1366 1365 1362
1249 1257 1265 1276 1289 1301 1312 1324 1334 1339 1343 1342 1348 1348 1350 1353 1359 1365 1367 1368 1372 1375 1383 1380 1376 1375 1379 1389 1388 1391 1395 1393 1388 1385 1376 1372 1370 1370 1366 1363 1363 1363 1362 1362
1257 1261 1270 1279 1291 1299 1310 1316 1318 1332 1340 1341 1344 1346 1348 1351 1356 1360 1363 1365 1365 1372 1375 1376 1373 1373 1373 1384 1389 1393 1393 1390 1384 1380 1374 1372 1373 1372 1367 1363 1363 1361 1358 1363
1270 1275 1282 1291 1300 1311 1315 1314 1318 1329 1333 1336 1340 1346 1348 1350 1353 1357 1358 1360 1360 1366 1370 1372 1373 1372 1376 1388 1396 1391 1394 1387 1384 1380 1380 1380 1378 1373 1368 1363 1360 1358 1356 1356
1283 1290 1295 1302 1305 1308 1315 1317 1325 1331 1338 1335 1340 1348 1349 1351 1352 1354 1356 1357 1364 1365 1368 1372 1375 1384 1396 1400 1397 1392 1391 1390 1389 1384 1380 1380 1375 1373 1365 1361 1361 1360 1358 1356
1294 1298 1300 1304 1309 1313 1318 1326 1332 1335 1334 1335 1341 1346 1350 1352 1352 1355 1357 1358 1363 1367 1368 1369 1379 1396 1403 1402 1398 1395 1392 1388 1385 1382 1380 1378 1373 1369 1368 1368 1368 1365 1364 1364
1299 1301 1306 1311 1315 1318 1322 1328 1331 1333 1337 1338 1341 1343 1347 1351 1354 1355 1356 1360 1359 1361 1362 1366 1386 1400 1402 1402 1399 1395 1392 1389 1386 1386 1385 1381 1376 1374 1373 1373 1372 1370 1369 1369
1306 1309 1314 1316 1318 1321 1326 1335 1334 1336 1339 1342 1343 1345 1345 1349 1350 1354 1356 1357 1357 1361 1362 1374 1396 1409 1407 1404 1402 1399 1393 1390 1387 1384 1383 1381 1379 1378 1376 1376 1376 1377 1376 1376
1313 1313 1317 1322 1329 1339 1342 1336 1339 1340 1344 1345 1343 1344 1346 1349 1350 1351 1353 1351 1358 1361 1377 1401 1411 1412 1410 1407 1403 1398 1395 1392 1388 1388 1387 1387 1385 1384 1382 1382 1384 1383 1382 1384
1317 1322 1335 1341 1349 1351 1353 1352 1349 1349 1347 1345 1344 1344 1346 1348 1348 1349 1351 1364 1366 1380 1396 1411 1415 1414 1412 1410 1407 1404 1401 1395 1396 1397 1396 1394 1392 1389 1392 1393 1393 1392 1392 1396
1328 1336 1352 1358 1359 1357 1354 1352 1350 1349 1347 1345 1344 1346 1348 1351 1352 1358 1360 1374 1391 1401 1411 1415 1417 1416 1415 1414 1412 1408 1405 1405 1406 1405 1404 1402 1403 1403 1403 1404 1403 1402 1403 1404
1345 1355 1361 1361 1359 1357 1354 1352 1349 1348 1346 1345 1345 1347 1353 1364 1369 1373 1383 1388 1403 1413 1417 1420 1420 1419 1417 1417 1417 1416 1414 1413 1414 1416 1415 1414 1413 1413 1413 1413 1412 1412 1412 1413
1360 1368 1369 1365 1363 1363 1360 1356 1353 1348 1347 1349 1354 1361 1368 1373 1379 1394 1402 1410 1415 1417 1420 1422 1423 1424 1423 1424 1424 1422 1421 1422 1423 1423 1423 1422 1423 1422 1421 1420 1422 1421 1421 1421